Location: Ajisawe
(8.4333°N, 4.3833°E)
Time: 14:40:45
(UTC+00:00)

Cosmos 2333 Rocket - Pass Details

Date: 07 June 2020
Orbit: 838 x 863 km, 70.8° (Epoch: 07 July)

Event Time Altitude Azimuth Distance (km) Brightness Sun altitude
Exits shadow 02:37:37 21° 2° (N) 1,778 4.1 -36.8°
Drops below altitude 10° 02:39:27 10° 7° (N) 2,447 5.0 -36.4°
Sets 02:41:55 0° 10° (N) 3,383 5.9 -35.9°
